Time,TemperatureF,DewpointF,PressureIn,WindDirection,WindDirectionDegrees,WindSpeedMPH,WindSpeedGustMPH,Humidity,HourlyPrecipIn,Conditions,Clouds,dailyrainin,SolarRadiationWatts/m^2,SoftwareType,DateUTC
2013-01-26 00:00:00,75.7,69.9,29.71,SSE,165,2.0,5.0,82,0.00,CLR,,0.01,0.0,WeatherDisplay:10.37,2013-01-25 14:00:00,
2013-01-26 00:05:00,75.4,69.9,29.70,SSE,161,1.0,6.0,83,0.00,CLR,,0.01,0.0,WeatherDisplay:10.37,2013-01-25 14:05:00,
2013-01-26 00:10:00,75.4,70.2,29.70,South,169,3.0,6.0,84,0.00,CLR,,0.01,0.0,WeatherDisplay:10.37,2013-01-25 14:10:00,
2013-01-26 00:15:00,75.3,70.1,29.69,South,176,2.0,5.0,84,0.00,CLR,,0.01,0.0,WeatherDisplay:10.37,2013-01-25 14:15:00,
2013-01-26 00:20:00,75.3,70.2,29.69,South,181,3.0,6.0,84,0.00,CLR,,0.01,0.0,WeatherDisplay:10.37,2013-01-25 14:20:00,
2013-01-26 00:25:00,75.2,70.4,29.68,SSE,163,3.0,5.0,85,0.00,CLR,,0.01,0.0,WeatherDisplay:10.37,2013-01-25 14:25:00,
2013-01-26 00:30:00,75.2,70.4,29.68,SSE,154,5.0,7.0,85,0.00,CLR,,0.01,0.0,WeatherDisplay:10.37,2013-01-25 14:30:00,
2013-01-26 00:35:00,75.4,70.6,29.68,SSE,152,3.0,7.0,85,0.00,CLR,,0.01,0.0,WeatherDisplay:10.37,2013-01-25 14:35:00,
2013-01-26 00:40:00,75.2,70.4,29.68,SSE,158,5.0,6.0,85,0.00,CLR,,0.01,0.0,WeatherDisplay:10.37,2013-01-25 14:40:00,
2013-01-26 00:45:00,75.2,70.4,29.68,SSE,167,5.0,6.0,85,0.00,CLR,,0.01,0.0,WeatherDisplay:10.37,2013-01-25 14:45:00,
2013-01-26 00:50:00,75.2,70.4,29.68,SSE,148,5.0,8.0,85,0.00,CLR,,0.01,0.0,WeatherDisplay:10.37,2013-01-25 14:50:00,
2013-01-26 00:55:00,75.2,70.4,29.67,SSE,159,5.0,7.0,85,0.00,CLR,,0.01,0.0,WeatherDisplay:10.37,2013-01-25 14:55:00,
2013-01-26 01:00:00,75.2,70.4,29.67,SSE,161,5.0,7.0,85,0.00,CLR,,0.01,0.0,WeatherDisplay:10.37,2013-01-25 15:00:00,
2013-01-26 01:05:00,75.2,70.4,29.68,SSE,161,3.0,6.0,85,0.00,CLR,,0.01,0.0,WeatherDisplay:10.37,2013-01-25 15:05:00,
2013-01-26 01:10:00,75.4,70.2,29.67,South,173,3.0,8.0,84,0.00,CLR,,0.01,0.0,WeatherDisplay:10.37,2013-01-25 15:10:00,
2013-01-26 01:15:00,75.4,70.2,29.67,South,171,5.0,6.0,84,0.00,CLR,,0.01,0.0,WeatherDisplay:10.37,2013-01-25 15:15:00,
2013-01-26 01:20:00,75.4,70.2,29.67,South,171,5.0,6.0,84,0.00,CLR,,0.01,0.0,WeatherDisplay:10.37,2013-01-25 15:20:00,
2013-01-26 01:25:00,75.4,69.9,29.67,SSE,168,3.0,7.0,83,0.00,CLR,,0.01,0.0,WeatherDisplay:10.37,2013-01-25 15:25:00,
2013-01-26 01:30:00,75.7,69.9,29.67,South,183,5.0,6.0,82,0.00,CLR,,0.01,0.0,WeatherDisplay:10.37,2013-01-25 15:30:00,
2013-01-26 01:35:00,75.7,69.9,29.67,South,185,2.0,7.0,82,0.00,CLR,,0.01,0.0,WeatherDisplay:10.37,2013-01-25 15:35:00,
2013-01-26 01:40:00,75.7,69.9,29.67,SSE,166,3.0,6.0,82,0.00,CLR,,0.01,0.0,WeatherDisplay:10.37,2013-01-25 15:40:00,
2013-01-26 01:45:00,75.7,69.9,29.67,SSE,165,6.0,8.0,82,0.00,CLR,,0.01,0.0,WeatherDisplay:10.37,2013-01-25 15:45:00,
2013-01-26 01:50:00,75.7,69.9,29.67,South,181,5.0,7.0,82,0.00,CLR,,0.01,0.0,WeatherDisplay:10.37,2013-01-25 15:50:00,
2013-01-26 02:00:00,76.1,69.8,29.67,South,177,3.0,9.0,81,0.00,CLR,,0.01,0.0,WeatherDisplay:10.37,2013-01-25 16:00:00,
2013-01-26 02:05:00,76.1,69.5,29.67,South,178,6.0,8.0,80,0.00,CLR,,0.01,0.0,WeatherDisplay:10.37,2013-01-25 16:05:00,
2013-01-26 02:10:00,76.1,69.5,29.67,South,176,5.0,8.0,80,0.00,CLR,,0.01,0.0,WeatherDisplay:10.37,2013-01-25 16:10:00,
2013-01-26 02:15:00,76.1,69.8,29.67,SSE,164,2.0,6.0,81,0.00,CLR,,0.01,0.0,WeatherDisplay:10.37,2013-01-25 16:15:00,
2013-01-26 02:20:00,76.1,69.8,29.66,SSE,157,6.0,8.0,81,0.00,CLR,,0.01,0.0,WeatherDisplay:10.37,2013-01-25 16:20:00,
2013-01-26 02:25:00,76.1,69.8,29.66,South,171,7.0,10.0,81,0.00,CLR,,0.01,0.0,WeatherDisplay:10.37,2013-01-25 16:25:00,
2013-01-26 02:30:00,76.3,69.7,29.66,South,170,8.0,14.0,80,0.00,CLR,,0.01,0.0,WeatherDisplay:10.37,2013-01-25 16:30:00,
2013-01-26 02:35:00,76.3,69.7,29.66,SSE,164,7.0,13.0,80,0.00,CLR,,0.01,0.0,WeatherDisplay:10.37,2013-01-25 16:35:00,
2013-01-26 02:40:00,76.3,69.7,29.66,South,174,8.0,12.0,80,0.00,CLR,,0.01,0.0,WeatherDisplay:10.37,2013-01-25 16:40:00,
2013-01-26 02:45:00,76.2,69.6,29.66,South,171,9.0,11.0,80,0.00,CLR,,0.01,0.0,WeatherDisplay:10.37,2013-01-25 16:45:00,
2013-01-26 02:50:00,76.3,69.7,29.66,SSE,158,7.0,10.0,80,0.00,CLR,,0.01,0.0,WeatherDisplay:10.37,2013-01-25 16:50:00,
2013-01-26 02:55:00,76.1,69.5,29.66,South,176,7.0,10.0,80,0.00,CLR,,0.01,0.0,WeatherDisplay:10.37,2013-01-25 16:55:00,
2013-01-26 03:00:00,76.1,69.5,29.67,South,190,6.0,11.0,80,0.00,CLR,,0.01,0.0,WeatherDisplay:10.37,2013-01-25 17:00:00,
2013-01-26 03:05:00,76.1,69.5,29.66,South,184,8.0,12.0,80,0.00,CLR,,0.01,0.0,WeatherDisplay:10.37,2013-01-25 17:05:00,
2013-01-26 03:10:00,76.1,69.8,29.66,SSE,165,8.0,12.0,81,0.00,CLR,,0.01,0.0,WeatherDisplay:10.37,2013-01-25 17:10:00,
2013-01-26 03:15:00,76.1,69.8,29.66,SSE,165,7.0,13.0,81,0.00,CLR,,0.01,0.0,WeatherDisplay:10.37,2013-01-25 17:15:00,
2013-01-26 03:20:00,76.1,69.8,29.66,South,173,8.0,12.0,81,0.00,CLR,,0.01,0.0,WeatherDisplay:10.37,2013-01-25 17:20:00,
2013-01-26 03:25:00,76.2,69.5,29.66,SSE,167,6.0,13.0,80,0.00,CLR,,0.01,0.0,WeatherDisplay:10.37,2013-01-25 17:25:00,
2013-01-26 03:30:00,76.3,69.7,29.67,South,181,3.0,9.0,80,0.00,CLR,,0.01,0.0,WeatherDisplay:10.37,2013-01-25 17:30:00,
2013-01-26 03:35:00,76.1,69.5,29.66,WSW,237,3.0,6.0,80,0.00,CLR,,0.01,0.0,WeatherDisplay:10.37,2013-01-25 17:35:00,
2013-01-26 03:45:00,75.7,69.5,29.67,WSW,240,1.0,5.0,81,0.00,CLR,,0.01,0.0,WeatherDisplay:10.37,2013-01-25 17:45:00,
2013-01-26 03:50:00,75.7,69.9,29.67,SW,234,3.0,5.0,82,0.00,CLR,,0.01,0.0,WeatherDisplay:10.37,2013-01-25 17:50:00,
2013-01-26 03:55:00,75.4,69.5,29.67,SW,222,2.0,7.0,82,0.00,CLR,,0.01,0.0,WeatherDisplay:10.37,2013-01-25 17:55:00,
2013-01-26 04:00:00,75.4,69.5,29.67,SW,234,2.0,6.0,82,0.00,CLR,,0.01,0.0,WeatherDisplay:10.37,2013-01-25 18:00:00,
2013-01-26 04:05:00,75.4,69.5,29.67,WSW,257,2.0,5.0,82,0.00,CLR,,0.01,0.0,WeatherDisplay:10.37,2013-01-25 18:05:00,
2013-01-26 04:10:00,75.4,69.1,29.67,WSW,244,3.0,7.0,81,0.00,CLR,,0.01,0.0,WeatherDisplay:10.37,2013-01-25 18:10:00,
2013-01-26 04:15:00,75.4,69.1,29.67,SSW,209,5.0,6.0,81,0.00,CLR,,0.01,0.0,WeatherDisplay:10.37,2013-01-25 18:15:00,
2013-01-26 04:20:00,75.4,69.1,29.67,SSW,198,5.0,7.0,81,0.00,CLR,,0.01,0.0,WeatherDisplay:10.37,2013-01-25 18:20:00,
2013-01-26 04:30:00,75.6,69.3,29.67,SSW,202,6.0,9.0,81,0.00,CLR,,0.01,0.0,WeatherDisplay:10.37,2013-01-25 18:30:00,
2013-01-26 04:35:00,76.0,69.3,29.68,SSW,199,5.0,8.0,80,0.00,CLR,,0.01,0.0,WeatherDisplay:10.37,2013-01-25 18:35:00,
2013-01-26 04:40:00,76.1,69.1,29.68,South,188,6.0,9.0,79,0.00,CLR,,0.01,0.0,WeatherDisplay:10.37,2013-01-25 18:40:00,
2013-01-26 04:45:00,76.3,69.3,29.68,SSW,193,7.0,11.0,79,0.00,CLR,,0.01,0.0,WeatherDisplay:10.37,2013-01-25 18:45:00,
2013-01-26 04:50:00,76.6,69.3,29.68,South,183,6.0,10.0,78,0.00,CLR,,0.01,0.0,WeatherDisplay:10.37,2013-01-25 18:50:00,
2013-01-26 04:55:00,76.8,69.4,29.69,South,177,7.0,13.0,78,0.00,CLR,,0.01,0.0,WeatherDisplay:10.37,2013-01-25 18:55:00,
2013-01-26 05:00:00,77.0,69.2,29.69,South,179,6.0,13.0,77,0.00,CLR,,0.01,0.0,WeatherDisplay:10.37,2013-01-25 19:00:00,
2013-01-26 05:10:00,77.2,69.0,29.69,South,181,6.0,12.0,76,0.00,CLR,,0.01,0.0,WeatherDisplay:10.37,2013-01-25 19:10:00,
2013-01-26 05:15:00,77.4,69.2,29.69,South,180,6.0,10.0,76,0.00,CLR,,0.01,0.0,WeatherDisplay:10.37,2013-01-25 19:15:00,
2013-01-26 05:20:00,77.4,69.2,29.69,South,187,6.0,10.0,76,0.00,CLR,,0.01,0.0,WeatherDisplay:10.37,2013-01-25 19:20:00,
2013-01-26 05:25:00,77.5,69.3,29.69,South,180,7.0,8.0,76,0.00,CLR,,0.01,0.0,WeatherDisplay:10.37,2013-01-25 19:25:00,
2013-01-26 05:30:00,77.4,69.2,29.69,SSW,205,3.0,10.0,76,0.00,CLR,,0.01,0.0,WeatherDisplay:10.37,2013-01-25 19:30:00,
2013-01-26 05:35:00,77.4,69.2,29.69,WSW,237,6.0,8.0,76,0.00,CLR,,0.01,0.0,WeatherDisplay:10.37,2013-01-25 19:35:00,
2013-01-26 05:40:00,77.5,69.4,29.69,SW,236,3.0,11.0,76,0.00,CLR,,0.01,0.0,WeatherDisplay:10.37,2013-01-25 19:40:00,
2013-01-26 05:45:00,77.5,69.8,29.69,SW,229,5.0,8.0,77,0.00,CLR,,0.01,0.0,WeatherDisplay:10.37,2013-01-25 19:45:00,
2013-01-26 05:50:00,77.2,69.4,29.69,SW,218,1.0,6.0,77,0.00,CLR,,0.01,0.0,WeatherDisplay:10.37,2013-01-25 19:50:00,
2013-01-26 05:55:00,77.0,69.6,29.69,South,186,2.0,4.0,78,0.00,CLR,,0.01,0.0,WeatherDisplay:10.37,2013-01-25 19:55:00,
2013-01-26 06:00:00,76.8,69.8,29.69,South,191,2.0,6.0,79,0.00,CLR,,0.01,0.0,WeatherDisplay:10.37,2013-01-25 20:00:00,
2013-01-26 06:05:00,76.8,70.2,29.69,WNW,292,2.0,6.0,80,0.00,CLR,,0.01,0.0,WeatherDisplay:10.37,2013-01-25 20:05:00,
2013-01-26 06:10:00,77.0,70.0,29.69,WSW,244,3.0,7.0,79,0.00,CLR,,0.01,3.8,WeatherDisplay:10.37,2013-01-25 20:10:00,
2013-01-26 06:20:00,77.0,70.0,29.69,WSW,246,5.0,11.0,79,0.00,CLR,,0.01,11.6,WeatherDisplay:10.37,2013-01-25 20:20:00,
2013-01-26 06:25:00,76.8,70.2,29.70,SSW,206,3.0,9.0,80,0.00,CLR,,0.01,17.0,WeatherDisplay:10.37,2013-01-25 20:25:00,
2013-01-26 06:30:00,76.8,70.2,29.70,SSW,208,2.0,8.0,80,0.00,CLR,,0.01,26.6,WeatherDisplay:10.37,2013-01-25 20:30:00,
2013-01-26 06:35:00,77.0,70.0,29.70,SW,219,5.0,7.0,79,0.00,BKN,,0.01,43.3,WeatherDisplay:10.37,2013-01-25 20:35:00,
2013-01-26 06:40:00,77.0,70.0,29.69,SW,216,3.0,6.0,79,0.00,BKN,,0.01,48.1,WeatherDisplay:10.37,2013-01-25 20:40:00,
2013-01-26 06:45:00,77.0,70.0,29.70,SW,215,3.0,6.0,79,0.00,BKN,,0.01,62.6,WeatherDisplay:10.37,2013-01-25 20:45:00,
2013-01-26 06:55:00,77.2,70.5,29.70,South,178,5.0,7.0,80,0.00,BKN,,0.01,100.4,WeatherDisplay:10.37,2013-01-25 20:55:00,
2013-01-26 07:00:00,77.5,70.9,29.70,South,189,2.0,6.0,80,0.00,BKN,,0.01,85.9,WeatherDisplay:10.37,2013-01-25 21:00:00,
2013-01-26 07:05:00,77.7,70.7,29.70,South,185,5.0,8.0,79,0.00,BKN,,0.01,74.1,WeatherDisplay:10.37,2013-01-25 21:05:00,
2013-01-26 07:10:00,77.7,70.7,29.70,South,181,6.0,10.0,79,0.00,BKN,,0.01,77.5,WeatherDisplay:10.37,2013-01-25 21:10:00,
2013-01-26 07:15:00,77.7,71.1,29.70,SSW,195,5.0,10.0,80,0.00,BKN,,0.01,102.2,WeatherDisplay:10.37,2013-01-25 21:15:00,
2013-01-26 07:20:00,78.1,71.4,29.70,SSW,210,6.0,12.0,80,0.00,BKN,,0.01,105.4,WeatherDisplay:10.37,2013-01-25 21:20:00,
2013-01-26 07:25:00,78.1,71.4,29.71,SSW,210,6.0,11.0,80,0.00,BKN,,0.01,105.6,WeatherDisplay:10.37,2013-01-25 21:25:00,
2013-01-26 07:30:00,78.1,71.8,29.72,SW,228,7.0,12.0,81,0.00,BKN,,0.01,99.0,WeatherDisplay:10.37,2013-01-25 21:30:00,
2013-01-26 07:35:00,78.1,71.8,29.72,SW,217,6.0,11.0,81,0.00,BKN,,0.01,97.9,WeatherDisplay:10.37,2013-01-25 21:35:00,
2013-01-26 07:40:00,78.3,71.9,29.73,South,190,8.0,13.0,81,0.00,BKN,,0.01,31.8,WeatherDisplay:10.37,2013-01-25 21:40:00,
2013-01-26 07:45:00,77.8,71.9,29.73,SSE,162,12.0,17.0,82,0.00,BKN,,0.01,75.7,WeatherDisplay:10.37,2013-01-25 21:45:00,
2013-01-26 07:50:00,77.4,71.8,29.74,SSE,167,7.0,17.0,83,0.00,BKN,,0.01,81.6,WeatherDisplay:10.37,2013-01-25 21:50:00,
2013-01-26 07:55:00,77.4,71.8,29.74,South,190,8.0,12.0,83,0.00,BKN,,0.01,36.3,WeatherDisplay:10.37,2013-01-25 21:55:00,
2013-01-26 08:00:00,77.2,71.6,29.74,SSW,192,3.0,12.0,83,0.00,BKN,,0.01,32.8,WeatherDisplay:10.37,2013-01-25 22:00:00,
2013-01-26 08:05:00,77.2,71.6,29.74,SSW,192,5.0,8.0,83,0.00,BKN,,0.01,32.9,WeatherDisplay:10.37,2013-01-25 22:05:00,
2013-01-26 08:10:00,77.4,72.1,29.74,South,169,6.0,12.0,84,0.00,BKN,,0.01,34.9,WeatherDisplay:10.37,2013-01-25 22:10:00,
2013-01-26 08:15:00,77.2,72.0,29.74,South,179,3.0,12.0,84,0.00,BKN,,0.01,42.5,WeatherDisplay:10.37,2013-01-25 22:15:00,
2013-01-26 08:20:00,77.0,71.8,29.75,South,175,7.0,11.0,84,0.00,SCT,,0.01,64.1,WeatherDisplay:10.37,2013-01-25 22:20:00,
2013-01-26 08:25:00,76.5,71.6,29.75,South,184,3.0,11.0,85,0.00,SCT,,0.01,52.6,WeatherDisplay:10.37,2013-01-25 22:25:00,
2013-01-26 08:30:00,76.3,71.8,29.75,SSW,199,2.0,6.0,86,0.00,FEW,,0.01,66.1,WeatherDisplay:10.37,2013-01-25 22:30:00,
2013-01-26 08:35:00,75.9,71.7,29.75,South,189,3.0,6.0,87,0.00,CLR,,0.01,57.6,WeatherDisplay:10.37,2013-01-25 22:35:00,
2013-01-26 08:40:00,75.4,71.6,29.75,South,175,2.0,6.0,88,0.00,CLR,,0.01,57.0,WeatherDisplay:10.37,2013-01-25 22:40:00,
2013-01-26 08:45:00,75.2,72.1,29.75,SSE,165,3.0,7.0,90,0.00,CLR,,0.01,42.0,WeatherDisplay:10.37,2013-01-25 22:45:00,
2013-01-26 08:50:00,75.1,71.7,29.75,South,170,8.0,12.0,89,0.00,CLR,,0.01,27.0,WeatherDisplay:10.37,2013-01-25 22:50:00,
2013-01-26 08:55:00,75.0,71.9,29.75,South,181,8.0,12.0,90,0.00,CLR,,0.01,13.0,WeatherDisplay:10.37,2013-01-25 22:55:00,
2013-01-26 09:00:00,74.8,71.7,29.75,SSE,164,9.0,13.0,90,0.00,RA,,0.00,104.9,WeatherDisplay:10.37,2013-01-25 23:00:00,
2013-01-26 09:05:00,74.8,72.0,29.75,SSE,159,5.0,15.0,91,0.00,RA,,0.00,124.7,WeatherDisplay:10.37,2013-01-25 23:05:00,
2013-01-26 09:10:00,74.8,72.0,29.75,SSE,151,5.0,11.0,91,0.00,OVC,,0.00,69.2,WeatherDisplay:10.37,2013-01-25 23:10:00,
2013-01-26 09:15:00,74.8,72.4,29.75,SSE,158,3.0,9.0,92,0.00,OVC,,0.00,93.4,WeatherDisplay:10.37,2013-01-25 23:15:00,
2013-01-26 09:20:00,74.8,72.4,29.75,South,172,3.0,8.0,92,0.00,OVC,,0.00,106.0,WeatherDisplay:10.37,2013-01-25 23:20:00,
2013-01-26 09:25:00,75.2,72.0,29.74,South,182,1.0,4.0,90,0.00,OVC,,0.00,120.7,WeatherDisplay:10.37,2013-01-25 23:25:00,
2013-01-26 09:30:00,75.6,72.5,29.74,South,183,2.0,6.0,90,0.00,OVC,,0.00,131.7,WeatherDisplay:10.37,2013-01-25 23:30:00,
2013-01-26 09:35:00,75.9,72.4,29.74,South,188,3.0,5.0,89,0.00,OVC,,0.00,121.2,WeatherDisplay:10.37,2013-01-25 23:35:00,
2013-01-26 09:40:00,75.7,71.9,29.74,SSW,202,2.0,6.0,88,0.00,OVC,,0.00,224.3,WeatherDisplay:10.37,2013-01-25 23:40:00,
2013-01-26 09:45:00,76.6,72.8,29.74,SSW,210,2.0,4.0,88,0.00,OVC,,0.00,361.3,WeatherDisplay:10.37,2013-01-25 23:45:00,
2013-01-26 09:50:00,77.2,72.7,29.73,SSW,197,7.0,9.0,86,0.00,OVC,,0.00,419.1,WeatherDisplay:10.37,2013-01-25 23:50:00,
2013-01-26 09:55:00,77.4,72.6,29.73,South,182,5.0,8.0,85,0.00,OVC,,0.00,480.2,WeatherDisplay:10.37,2013-01-25 23:55:00,
2013-01-26 10:00:00,78.1,73.2,29.73,SSE,167,3.0,6.0,85,0.00,OVC,,0.00,533.1,WeatherDisplay:10.37,2013-01-26 00:00:00,
2013-01-26 10:05:00,78.8,72.8,29.72,South,181,5.0,7.0,82,0.00,OVC,,0.00,496.5,WeatherDisplay:10.37,2013-01-26 00:05:00,
2013-01-26 10:10:00,78.8,72.8,29.72,SSW,212,3.0,7.0,82,0.00,OVC,,0.00,517.1,WeatherDisplay:10.37,2013-01-26 00:10:00,
2013-01-26 10:15:00,79.4,73.5,29.72,SW,234,3.0,7.0,82,0.00,OVC,,0.00,609.5,WeatherDisplay:10.37,2013-01-26 00:15:00,
2013-01-26 10:20:00,79.7,73.3,29.72,SW,216,6.0,8.0,81,0.00,OVC,,0.00,556.2,WeatherDisplay:10.37,2013-01-26 00:20:00,
2013-01-26 10:30:00,82.1,74.9,29.71,South,183,3.0,8.0,79,0.00,OVC,,0.00,1029.9,WeatherDisplay:10.37,2013-01-26 00:30:00,
2013-01-26 10:35:00,83.9,74.3,29.71,South,182,5.0,8.0,73,0.00,OVC,,0.00,1819.4,WeatherDisplay:10.37,2013-01-26 00:35:00,
2013-01-26 10:40:00,85.8,74.4,29.70,SSW,200,2.0,7.0,69,0.00,OVC,,0.00,749.3,WeatherDisplay:10.37,2013-01-26 00:40:00,
2013-01-26 10:45:00,83.8,73.8,29.70,SE,145,5.0,9.0,72,0.00,OVC,,0.00,618.3,WeatherDisplay:10.37,2013-01-26 00:45:00,
2013-01-26 10:50:00,82.4,73.6,29.69,SE,143,5.0,8.0,75,0.00,OVC,,0.00,1695.4,WeatherDisplay:10.37,2013-01-26 00:50:00,
2013-01-26 10:55:00,83.8,75.1,29.69,South,183,2.0,6.0,75,0.00,OVC,,0.00,1987.8,WeatherDisplay:10.37,2013-01-26 00:55:00,
2013-01-26 11:00:00,87.3,74.5,29.68,South,188,6.0,8.0,66,0.00,OVC,,0.00,939.9,WeatherDisplay:10.37,2013-01-26 01:00:00,
2013-01-26 11:05:00,86.8,74.0,29.69,SSW,193,5.0,8.0,66,0.00,OVC,,0.00,963.0,WeatherDisplay:10.37,2013-01-26 01:05:00,
2013-01-26 11:10:00,86.5,73.3,29.69,SW,220,1.0,11.0,65,0.00,OVC,,0.00,915.6,WeatherDisplay:10.37,2013-01-26 01:10:00,
2013-01-26 11:15:00,86.4,73.7,29.68,West,273,3.0,10.0,66,0.00,OVC,,0.00,1915.9,WeatherDisplay:10.37,2013-01-26 01:15:00,
2013-01-26 11:20:00,86.4,73.7,29.68,WNW,297,6.0,14.0,66,0.00,OVC,,0.00,1751.9,WeatherDisplay:10.37,2013-01-26 01:20:00,
2013-01-26 11:25:00,87.4,74.2,29.67,NW,307,7.0,10.0,65,0.00,OVC,,0.00,1824.2,WeatherDisplay:10.37,2013-01-26 01:25:00,
2013-01-26 11:30:00,86.8,74.1,29.67,WNW,303,3.0,9.0,66,0.00,OVC,,0.00,914.5,WeatherDisplay:10.37,2013-01-26 01:30:00,
2013-01-26 11:35:00,88.3,73.6,29.66,WNW,285,3.0,10.0,62,0.00,OVC,,0.00,895.0,WeatherDisplay:10.37,2013-01-26 01:35:00,
2013-01-26 11:40:00,88.3,73.1,29.67,WNW,286,7.0,12.0,61,0.00,OVC,,0.00,1922.3,WeatherDisplay:10.37,2013-01-26 01:40:00,
2013-01-26 11:45:00,88.7,73.0,29.66,WSW,252,9.0,15.0,60,0.00,OVC,,0.00,1737.2,WeatherDisplay:10.37,2013-01-26 01:45:00,
2013-01-26 11:50:00,88.4,73.2,29.66,South,191,3.0,15.0,61,0.00,OVC,,0.00,1935.2,WeatherDisplay:10.37,2013-01-26 01:50:00,
2013-01-26 11:55:00,89.1,71.9,29.65,SSW,206,2.0,10.0,57,0.00,OVC,,0.00,1726.7,WeatherDisplay:10.37,2013-01-26 01:55:00,
2013-01-26 12:00:00,89.5,72.8,29.65,West,266,7.0,11.0,58,0.00,OVC,,0.00,1451.0,WeatherDisplay:10.37,2013-01-26 02:00:00,
2013-01-26 12:05:00,88.8,72.1,29.64,WSW,250,3.0,11.0,58,0.00,OVC,,0.00,1665.8,WeatherDisplay:10.37,2013-01-26 02:05:00,
2013-01-26 12:10:00,89.1,72.9,29.64,West,259,8.0,13.0,59,0.00,OVC,,0.00,1625.9,WeatherDisplay:10.37,2013-01-26 02:10:00,
2013-01-26 12:15:00,88.4,72.7,29.64,West,277,5.0,13.0,60,0.00,OVC,,0.00,1547.7,WeatherDisplay:10.37,2013-01-26 02:15:00,
2013-01-26 12:25:00,87.7,72.1,29.64,West,276,7.0,13.0,60,0.00,OVC,,0.00,1194.6,WeatherDisplay:10.37,2013-01-26 02:25:00,
2013-01-26 12:30:00,87.5,72.9,29.64,West,273,6.0,15.0,62,0.00,OVC,,0.00,1049.5,WeatherDisplay:10.37,2013-01-26 02:30:00,
2013-01-26 12:35:00,88.3,72.7,29.64,WNW,283,3.0,11.0,60,0.00,OVC,,0.00,2105.9,WeatherDisplay:10.37,2013-01-26 02:35:00,
2013-01-26 12:40:00,89.1,72.9,29.63,WSW,242,5.0,13.0,59,0.00,OVC,,0.00,1427.7,WeatherDisplay:10.37,2013-01-26 02:40:00,
2013-01-26 12:45:00,89.2,72.5,29.64,SW,216,7.0,13.0,58,0.00,OVC,,0.00,1288.7,WeatherDisplay:10.37,2013-01-26 02:45:00,
2013-01-26 12:50:00,88.9,72.7,29.64,WSW,254,7.0,11.0,59,0.00,OVC,,0.00,1704.6,WeatherDisplay:10.37,2013-01-26 02:50:00,
2013-01-26 13:00:00,89.6,72.9,29.63,NW,305,5.0,14.0,58,0.00,OVC,,0.00,1081.2,WeatherDisplay:10.37,2013-01-26 03:00:00,
2013-01-26 13:05:00,91.0,73.1,29.63,WNW,294,8.0,14.0,56,0.00,OVC,,0.00,1845.3,WeatherDisplay:10.37,2013-01-26 03:05:00,
2013-01-26 13:10:00,91.4,72.9,29.63,WNW,283,6.0,14.0,55,0.00,OVC,,0.00,1727.8,WeatherDisplay:10.37,2013-01-26 03:10:00,
2013-01-26 13:15:00,91.2,72.2,29.62,WSW,241,8.0,20.0,54,0.00,OVC,,0.00,1710.1,WeatherDisplay:10.37,2013-01-26 03:15:00,
2013-01-26 13:20:00,91.6,73.1,29.62,SSW,210,7.0,13.0,55,0.00,OVC,,0.00,1099.5,WeatherDisplay:10.37,2013-01-26 03:20:00,
2013-01-26 13:25:00,91.0,72.0,29.62,WSW,249,10.0,15.0,54,0.00,OVC,,0.00,1190.8,WeatherDisplay:10.37,2013-01-26 03:25:00,
2013-01-26 13:30:00,90.0,71.1,29.62,SW,236,7.0,15.0,54,0.00,OVC,,0.00,927.3,WeatherDisplay:10.37,2013-01-26 03:30:00,
2013-01-26 13:35:00,90.1,71.8,29.62,WSW,251,5.0,12.0,55,0.00,OVC,,0.00,1002.0,WeatherDisplay:10.37,2013-01-26 03:35:00,
2013-01-26 13:40:00,90.7,72.3,29.62,WSW,249,6.0,14.0,55,0.00,OVC,,0.00,869.3,WeatherDisplay:10.37,2013-01-26 03:40:00,
2013-01-26 13:45:00,91.6,72.0,29.62,SW,214,3.0,8.0,53,0.00,OVC,,0.00,1634.5,WeatherDisplay:10.37,2013-01-26 03:45:00,
2013-01-26 13:55:00,92.4,72.8,29.62,NW,307,6.0,15.0,53,0.00,OVC,,0.00,1159.2,WeatherDisplay:10.37,2013-01-26 03:55:00,
2013-01-26 14:00:00,92.0,71.3,29.61,SW,230,5.0,17.0,51,0.00,OVC,,0.00,1294.8,WeatherDisplay:10.37,2013-01-26 04:00:00,
2013-01-26 14:05:00,93.7,72.9,29.61,SSW,212,9.0,13.0,51,0.00,OVC,,0.00,1006.4,WeatherDisplay:10.37,2013-01-26 04:05:00,
2013-01-26 14:10:00,93.3,72.5,29.61,WSW,244,7.0,13.0,51,0.00,OVC,,0.00,695.8,WeatherDisplay:10.37,2013-01-26 04:10:00,
2013-01-26 14:15:00,92.1,72.5,29.61,SW,218,7.0,13.0,53,0.00,OVC,,0.00,754.8,WeatherDisplay:10.37,2013-01-26 04:15:00,
2013-01-26 14:20:00,92.3,71.6,29.61,SSW,213,5.0,14.0,51,0.00,OVC,,0.00,707.3,WeatherDisplay:10.37,2013-01-26 04:20:00,
2013-01-26 14:25:00,92.1,72.5,29.61,West,271,3.0,15.0,53,0.00,OVC,,0.00,725.3,WeatherDisplay:10.37,2013-01-26 04:25:00,
2013-01-26 14:30:00,91.8,73.3,29.61,WNW,288,5.0,13.0,55,0.00,OVC,,0.00,728.7,WeatherDisplay:10.37,2013-01-26 04:30:00,
2013-01-26 14:35:00,91.9,72.9,29.61,SW,225,5.0,13.0,54,0.00,OVC,,0.00,672.3,WeatherDisplay:10.37,2013-01-26 04:35:00,
2013-01-26 14:45:00,92.1,72.0,29.61,SSW,199,5.0,13.0,52,0.00,OVC,,0.00,644.7,WeatherDisplay:10.37,2013-01-26 04:45:00,
2013-01-26 14:50:00,91.8,71.7,29.61,West,273,2.0,13.0,52,0.00,OVC,,0.00,707.6,WeatherDisplay:10.37,2013-01-26 04:50:00,
2013-01-26 14:55:00,92.8,72.6,29.60,WNW,303,5.0,9.0,52,0.00,OVC,,0.00,673.5,WeatherDisplay:10.37,2013-01-26 04:55:00,
2013-01-26 15:05:00,93.0,72.7,29.60,WSW,239,2.0,10.0,52,0.00,OVC,,0.00,775.6,WeatherDisplay:10.37,2013-01-26 05:05:00,
2013-01-26 15:10:00,93.6,72.2,29.60,SSW,208,6.0,8.0,50,0.00,OVC,,0.00,882.9,WeatherDisplay:10.37,2013-01-26 05:10:00,
2013-01-26 15:15:00,93.7,71.7,29.60,WSW,247,6.0,12.0,49,0.00,OVC,,0.00,890.8,WeatherDisplay:10.37,2013-01-26 05:15:00,
2013-01-26 15:20:00,94.1,72.6,29.60,WSW,255,6.0,11.0,50,0.00,OVC,,0.00,1088.9,WeatherDisplay:10.37,2013-01-26 05:20:00,
2013-01-26 15:25:00,95.2,71.1,29.59,WSW,252,7.0,13.0,46,0.00,OVC,,0.00,1245.8,WeatherDisplay:10.37,2013-01-26 05:25:00,
2013-01-26 15:30:00,94.9,70.9,29.59,WSW,250,5.0,14.0,46,0.00,OVC,,0.00,1619.1,WeatherDisplay:10.37,2013-01-26 05:30:00,
2013-01-26 15:40:00,94.1,70.8,29.59,West,261,3.0,13.0,47,0.00,OVC,,0.00,1410.7,WeatherDisplay:10.37,2013-01-26 05:40:00,
2013-01-26 15:45:00,95.2,71.1,29.59,WNW,294,6.0,14.0,46,0.00,OVC,,0.00,898.9,WeatherDisplay:10.37,2013-01-26 05:45:00,
2013-01-26 15:50:00,93.7,71.6,29.59,NW,315,3.0,13.0,49,0.00,OVC,,0.00,364.1,WeatherDisplay:10.37,2013-01-26 05:50:00,
2013-01-26 15:55:00,92.9,72.1,29.59,NW,311,6.0,10.0,51,0.00,OVC,,0.00,567.6,WeatherDisplay:10.37,2013-01-26 05:55:00,
2013-01-26 16:00:00,92.7,71.9,29.59,WSW,237,7.0,10.0,51,0.00,OVC,,0.00,456.8,WeatherDisplay:10.37,2013-01-26 06:00:00,
2013-01-26 16:05:00,92.8,72.0,29.59,SSW,213,3.0,11.0,51,0.00,OVC,,0.00,534.3,WeatherDisplay:10.37,2013-01-26 06:05:00,
2013-01-26 16:10:00,93.0,72.2,29.59,WSW,245,5.0,9.0,51,0.00,OVC,,0.00,569.3,WeatherDisplay:10.37,2013-01-26 06:10:00,
2013-01-26 16:15:00,92.8,72.0,29.59,WNW,300,9.0,13.0,51,0.00,OVC,,0.00,615.1,WeatherDisplay:10.37,2013-01-26 06:15:00,
2013-01-26 16:20:00,91.7,72.7,29.59,NW,322,9.0,13.0,54,0.00,OVC,,0.00,406.7,WeatherDisplay:10.37,2013-01-26 06:20:00,
2013-01-26 16:30:00,90.1,71.2,29.59,NW,318,8.0,11.0,54,0.00,OVC,,0.00,277.3,WeatherDisplay:10.37,2013-01-26 06:30:00,
2013-01-26 16:35:00,90.5,70.5,29.60,NW,321,5.0,12.0,52,0.00,OVC,,0.00,283.0,WeatherDisplay:10.37,2013-01-26 06:35:00,
2013-01-26 16:40:00,90.9,70.8,29.60,NW,319,8.0,12.0,52,0.00,OVC,,0.00,358.7,WeatherDisplay:10.37,2013-01-26 06:40:00,
2013-01-26 16:45:00,91.2,71.1,29.60,NW,304,6.0,13.0,52,0.00,OVC,,0.00,541.3,WeatherDisplay:10.37,2013-01-26 06:45:00,
2013-01-26 16:50:00,91.8,71.6,29.60,West,280,2.0,9.0,52,0.00,OVC,,0.00,808.4,WeatherDisplay:10.37,2013-01-26 06:50:00,
2013-01-26 16:55:00,94.1,72.0,29.60,West,269,3.0,11.0,49,0.00,OVC,,0.00,400.9,WeatherDisplay:10.37,2013-01-26 06:55:00,
2013-01-26 17:00:00,93.5,72.1,29.60,WNW,298,7.0,10.0,50,0.00,CLR,,0.00,251.7,WeatherDisplay:10.37,2013-01-26 07:00:00,
2013-01-26 17:05:00,92.0,73.0,29.60,NW,309,6.0,10.0,54,0.00,CLR,,0.00,169.0,WeatherDisplay:10.37,2013-01-26 07:05:00,
2013-01-26 17:10:00,90.8,72.9,29.60,NW,311,5.0,9.0,56,0.00,CLR,,0.00,131.2,WeatherDisplay:10.37,2013-01-26 07:10:00,
2013-01-26 17:15:00,89.9,72.6,29.60,NW,320,6.0,11.0,57,0.00,CLR,,0.00,135.8,WeatherDisplay:10.37,2013-01-26 07:15:00,
2013-01-26 17:20:00,89.3,72.6,29.61,NW,317,6.0,11.0,58,0.00,CLR,,0.00,126.7,WeatherDisplay:10.37,2013-01-26 07:20:00,
2013-01-26 17:25:00,89.2,73.5,29.61,NW,310,6.0,9.0,60,0.00,CLR,,0.00,124.6,WeatherDisplay:10.37,2013-01-26 07:25:00,
2013-01-26 17:30:00,89.1,73.9,29.61,NW,308,3.0,9.0,61,0.00,CLR,,0.00,124.6,WeatherDisplay:10.37,2013-01-26 07:30:00,
2013-01-26 17:35:00,88.9,74.2,29.61,NW,305,3.0,8.0,62,0.00,CLR,,0.00,158.5,WeatherDisplay:10.37,2013-01-26 07:35:00,
2013-01-26 17:40:00,89.2,74.0,29.61,WNW,294,8.0,13.0,61,0.00,CLR,,0.00,360.5,WeatherDisplay:10.37,2013-01-26 07:40:00,
2013-01-26 17:45:00,90.2,73.4,29.61,WNW,301,5.0,13.0,58,0.00,CLR,,0.00,366.1,WeatherDisplay:10.37,2013-01-26 07:45:00,
2013-01-26 17:50:00,90.5,73.2,29.61,NW,310,6.0,9.0,57,0.00,CLR,,0.00,363.4,WeatherDisplay:10.37,2013-01-26 07:50:00,
2013-01-26 17:55:00,90.9,73.0,29.61,NW,310,7.0,12.0,56,0.00,CLR,,0.00,333.3,WeatherDisplay:10.37,2013-01-26 07:55:00,
2013-01-26 18:00:00,90.3,72.5,29.62,NW,311,5.0,13.0,56,0.00,CLR,,0.00,333.6,WeatherDisplay:10.37,2013-01-26 08:00:00,
2013-01-26 18:05:00,90.3,73.0,29.62,NW,311,3.0,13.0,57,0.00,CLR,,0.00,171.2,WeatherDisplay:10.37,2013-01-26 08:05:00,
2013-01-26 18:10:00,89.5,72.2,29.62,NW,309,9.0,13.0,57,0.00,CLR,,0.00,186.4,WeatherDisplay:10.37,2013-01-26 08:10:00,
2013-01-26 18:15:00,89.2,72.5,29.62,NW,311,7.0,15.0,58,0.00,CLR,,0.00,217.9,WeatherDisplay:10.37,2013-01-26 08:15:00,
2013-01-26 18:20:00,89.6,72.3,29.62,WNW,300,6.0,10.0,57,0.00,CLR,,0.00,145.2,WeatherDisplay:10.37,2013-01-26 08:20:00,
2013-01-26 18:25:00,89.2,73.0,29.63,WNW,298,3.0,9.0,59,0.00,CLR,,0.00,76.3,WeatherDisplay:10.37,2013-01-26 08:25:00,
2013-01-26 18:30:00,88.7,73.5,29.62,NW,307,5.0,10.0,61,0.00,CLR,,0.00,29.9,WeatherDisplay:10.37,2013-01-26 08:30:00,
2013-01-26 18:35:00,87.7,73.1,29.63,NW,313,5.0,10.0,62,0.00,CLR,,0.00,20.6,WeatherDisplay:10.37,2013-01-26 08:35:00,
2013-01-26 18:40:00,87.3,73.6,29.63,NW,319,6.0,11.0,64,0.00,CLR,,0.00,13.6,WeatherDisplay:10.37,2013-01-26 08:40:00,
2013-01-26 18:45:00,86.7,73.1,29.64,NW,316,6.0,11.0,64,0.00,CLR,,0.00,9.5,WeatherDisplay:10.37,2013-01-26 08:45:00,
2013-01-26 18:50:00,86.4,73.2,29.64,WNW,296,3.0,7.0,65,0.00,CLR,,0.00,4.9,WeatherDisplay:10.37,2013-01-26 08:50:00,
2013-01-26 18:55:00,86.0,73.3,29.64,WNW,297,3.0,9.0,66,0.00,CLR,,0.00,1.2,WeatherDisplay:10.37,2013-01-26 08:55:00,
2013-01-26 19:00:00,85.8,73.6,29.64,NW,311,6.0,9.0,67,0.00,CLR,,0.00,0.0,WeatherDisplay:10.37,2013-01-26 09:00:00,
2013-01-26 19:05:00,85.6,73.9,29.65,NW,315,7.0,12.0,68,0.00,CLR,,0.00,0.0,WeatherDisplay:10.37,2013-01-26 09:05:00,
2013-01-26 19:10:00,85.5,73.7,29.65,NW,311,5.0,8.0,68,0.00,CLR,,0.00,0.0,WeatherDisplay:10.37,2013-01-26 09:10:00,
2013-01-26 19:15:00,85.2,73.4,29.65,WNW,301,3.0,8.0,68,0.00,CLR,,0.00,0.0,WeatherDisplay:10.37,2013-01-26 09:15:00,
2013-01-26 19:20:00,84.9,73.6,29.66,WNW,292,3.0,8.0,69,0.00,CLR,,0.00,0.0,WeatherDisplay:10.37,2013-01-26 09:20:00,
2013-01-26 19:25:00,84.7,73.4,29.66,NW,305,3.0,7.0,69,0.00,CLR,,0.00,0.0,WeatherDisplay:10.37,2013-01-26 09:25:00,
2013-01-26 19:30:00,84.6,73.3,29.66,NW,309,2.0,5.0,69,0.00,CLR,,0.00,0.0,WeatherDisplay:10.37,2013-01-26 09:30:00,
2013-01-26 19:35:00,84.2,73.3,29.67,NW,312,2.0,4.0,70,0.00,CLR,,0.00,0.0,WeatherDisplay:10.37,2013-01-26 09:35:00,
2013-01-26 19:40:00,84.2,73.3,29.67,NW,307,2.0,4.0,70,0.00,CLR,,0.00,0.0,WeatherDisplay:10.37,2013-01-26 09:40:00,
2013-01-26 19:45:00,84.0,74.0,29.66,WNW,292,1.0,4.0,72,0.00,CLR,,0.00,0.0,WeatherDisplay:10.37,2013-01-26 09:45:00,
2013-01-26 19:50:00,83.8,73.8,29.66,WNW,293,2.0,5.0,72,0.00,CLR,,0.00,0.0,WeatherDisplay:10.37,2013-01-26 09:50:00,
2013-01-26 19:55:00,83.7,74.1,29.66,WNW,297,1.0,4.0,73,0.00,CLR,,0.00,0.0,WeatherDisplay:10.37,2013-01-26 09:55:00,
2013-01-26 20:00:00,83.6,74.0,29.66,NW,305,2.0,4.0,73,0.00,CLR,,0.00,0.0,WeatherDisplay:10.37,2013-01-26 10:00:00,
2013-01-26 20:05:00,83.3,73.7,29.66,NW,312,2.0,6.0,73,0.00,CLR,,0.00,0.0,WeatherDisplay:10.37,2013-01-26 10:05:00,
2013-01-26 20:10:00,83.3,74.1,29.67,NW,309,2.0,5.0,74,0.00,CLR,,0.00,0.0,WeatherDisplay:10.37,2013-01-26 10:10:00,
2013-01-26 20:15:00,83.3,74.1,29.67,NW,311,2.0,5.0,74,0.00,CLR,,0.00,0.0,WeatherDisplay:10.37,2013-01-26 10:15:00,
2013-01-26 20:20:00,83.1,74.0,29.67,NW,315,2.0,5.0,74,0.00,CLR,,0.00,0.0,WeatherDisplay:10.37,2013-01-26 10:20:00,
2013-01-26 20:25:00,83.1,74.0,29.67,NW,304,1.0,4.0,74,0.00,CLR,,0.00,0.0,WeatherDisplay:10.37,2013-01-26 10:25:00,
2013-01-26 20:30:00,82.9,74.2,29.67,WNW,297,2.0,4.0,75,0.00,CLR,,0.00,0.0,WeatherDisplay:10.37,2013-01-26 10:30:00,
2013-01-26 20:35:00,82.9,74.2,29.68,NW,308,0.0,3.0,75,0.00,CLR,,0.00,0.0,WeatherDisplay:10.37,2013-01-26 10:35:00,
2013-01-26 20:40:00,82.8,74.1,29.68,NW,315,1.0,3.0,75,0.00,CLR,,0.00,0.0,WeatherDisplay:10.37,2013-01-26 10:40:00,
2013-01-26 20:45:00,82.8,74.0,29.69,NW,311,2.0,4.0,75,0.00,CLR,,0.00,0.0,WeatherDisplay:10.37,2013-01-26 10:45:00,
2013-01-26 20:50:00,82.6,73.8,29.68,WNW,300,1.0,3.0,75,0.00,CLR,,0.00,0.0,WeatherDisplay:10.37,2013-01-26 10:50:00,
2013-01-26 20:55:00,82.4,73.7,29.69,WNW,286,0.0,2.0,75,0.00,CLR,,0.00,0.0,WeatherDisplay:10.37,2013-01-26 10:55:00,
2013-01-26 21:00:00,82.2,73.9,29.69,WSW,241,0.0,2.0,76,0.00,CLR,,0.00,0.0,WeatherDisplay:10.37,2013-01-26 11:00:00,
2013-01-26 21:05:00,81.9,73.5,29.69,WSW,255,0.0,2.0,76,0.00,CLR,,0.00,0.0,WeatherDisplay:10.37,2013-01-26 11:05:00,
2013-01-26 21:10:00,81.7,73.8,29.69,NW,318,1.0,2.0,77,0.00,CLR,,0.00,0.0,WeatherDisplay:10.37,2013-01-26 11:10:00,
2013-01-26 21:15:00,81.6,74.0,29.69,NW,325,0.0,2.0,78,0.00,CLR,,0.00,0.0,WeatherDisplay:10.37,2013-01-26 11:15:00,
2013-01-26 21:25:00,80.3,74.3,29.69,West,281,1.0,2.0,82,0.00,CLR,,0.00,0.0,WeatherDisplay:10.37,2013-01-26 11:25:00,
2013-01-26 21:30:00,80.4,74.4,29.70,WNW,286,1.0,2.0,82,0.00,CLR,,0.00,0.0,WeatherDisplay:10.37,2013-01-26 11:30:00,
2013-01-26 21:35:00,80.8,74.4,29.70,WNW,288,1.0,2.0,81,0.00,CLR,,0.00,0.0,WeatherDisplay:10.37,2013-01-26 11:35:00,
2013-01-26 21:40:00,81.0,74.2,29.69,WNW,295,2.0,3.0,80,0.00,CLR,,0.00,0.0,WeatherDisplay:10.37,2013-01-26 11:40:00,
2013-01-26 21:45:00,81.1,74.4,29.70,WNW,295,1.0,3.0,80,0.00,CLR,,0.00,0.0,WeatherDisplay:10.37,2013-01-26 11:45:00,
2013-01-26 21:50:00,81.0,74.2,29.70,NW,308,0.0,2.0,80,0.00,CLR,,0.00,0.0,WeatherDisplay:10.37,2013-01-26 11:50:00,
2013-01-26 21:55:00,80.8,74.4,29.70,North,349,1.0,2.0,81,0.00,CLR,,0.00,0.0,WeatherDisplay:10.37,2013-01-26 11:55:00,
2013-01-26 22:05:00,80.3,74.6,29.71,East,100,0.0,2.0,83,0.00,CLR,,0.00,0.0,WeatherDisplay:10.37,2013-01-26 12:05:00,
2013-01-26 22:10:00,79.5,74.6,29.71,SSW,197,1.0,2.0,85,0.00,CLR,,0.00,0.0,WeatherDisplay:10.37,2013-01-26 12:10:00,
2013-01-26 22:15:00,79.2,74.3,29.71,WSW,241,0.0,2.0,85,0.00,CLR,,0.00,0.0,WeatherDisplay:10.37,2013-01-26 12:15:00,
2013-01-26 22:20:00,79.2,74.3,29.71,West,265,0.0,0.0,85,0.00,CLR,,0.00,0.0,WeatherDisplay:10.37,2013-01-26 12:20:00,
2013-01-26 22:25:00,79.1,74.2,29.71,West,270,0.0,0.0,85,0.00,CLR,,0.00,0.0,WeatherDisplay:10.37,2013-01-26 12:25:00,
2013-01-26 22:30:00,79.0,74.1,29.71,WSW,240,0.0,1.0,85,0.00,CLR,,0.00,0.0,WeatherDisplay:10.37,2013-01-26 12:30:00,
2013-01-26 22:35:00,78.8,74.6,29.71,South,190,1.0,2.0,87,0.00,CLR,,0.00,0.0,WeatherDisplay:10.37,2013-01-26 12:35:00,
2013-01-26 22:40:00,78.3,74.8,29.71,South,184,0.0,2.0,89,0.00,CLR,,0.00,0.0,WeatherDisplay:10.37,2013-01-26 12:40:00,
2013-01-26 22:45:00,78.3,74.7,29.71,SSW,209,1.0,2.0,89,0.00,CLR,,0.00,0.0,WeatherDisplay:10.37,2013-01-26 12:45:00,
2013-01-26 22:50:00,78.4,74.5,29.71,SW,225,0.0,2.0,88,0.00,CLR,,0.00,0.0,WeatherDisplay:10.37,2013-01-26 12:50:00,
2013-01-26 22:55:00,78.6,75.1,29.71,South,186,1.0,2.0,89,0.00,CLR,,0.00,0.0,WeatherDisplay:10.37,2013-01-26 12:55:00,
2013-01-26 23:00:00,78.4,75.3,29.71,SE,144,1.0,2.0,90,0.00,CLR,,0.00,0.0,WeatherDisplay:10.37,2013-01-26 13:00:00,
2013-01-26 23:05:00,78.1,75.6,29.71,SE,145,1.0,2.0,92,0.00,CLR,,0.00,0.0,WeatherDisplay:10.37,2013-01-26 13:05:00,
2013-01-26 23:10:00,78.1,75.6,29.71,SSE,167,0.0,2.0,92,0.00,CLR,,0.00,0.0,WeatherDisplay:10.37,2013-01-26 13:10:00,
2013-01-26 23:20:00,78.4,75.6,29.71,SSE,162,0.0,2.0,91,0.00,CLR,,0.00,0.0,WeatherDisplay:10.37,2013-01-26 13:20:00,
2013-01-26 23:25:00,78.3,75.4,29.70,SSE,154,0.0,2.0,91,0.00,CLR,,0.00,0.0,WeatherDisplay:10.37,2013-01-26 13:25:00,
2013-01-26 23:30:00,78.3,75.1,29.70,SSW,197,0.0,2.0,90,0.00,CLR,,0.00,0.0,WeatherDisplay:10.37,2013-01-26 13:30:00,
2013-01-26 23:40:00,78.4,74.9,29.70,SW,220,2.0,3.0,89,0.00,CLR,,0.00,0.0,WeatherDisplay:10.37,2013-01-26 13:40:00,
2013-01-26 23:45:00,78.6,74.8,29.70,SSW,199,1.0,3.0,88,0.00,CLR,,0.00,0.0,WeatherDisplay:10.37,2013-01-26 13:45:00,
2013-01-26 23:50:00,78.6,74.8,29.69,SSW,201,1.0,3.0,88,0.00,CLR,,0.00,0.0,WeatherDisplay:10.37,2013-01-26 13:50:00,
2013-01-26 23:55:00,78.7,74.8,29.69,SSW,194,2.0,5.0,88,0.00,CLR,,0.00,0.0,WeatherDisplay:10.37,2013-01-26 13:55:00,